Regional Weather Roundup
Issued by NWS

Home | Current Version | Previous Version | Graphics & Text | Print | Product List | Glossary On
Versions: 1 2 3 4 5 6 7 8 9 10 11 12 13 14 15 16 17 18 19 20 21 22 23 24 25 26 27 28 29 30 31 32 33 34 35 36 37 38 39 40 41 42 43 44 45 46 47 48 49 50
000
ASUS45 KTFX 061310
RWRMT
MONTANA REGIONAL WEATHER ROUNDUP
NATIONAL WEATHER SERVICE GREAT FALLS MT
700 AM MDT MON JUL 06 2015

NOTE: "FAIR" INDICATES FEW OR NO CLOUDS BELOW 12000 FEET WITH NO
SIGNIFICANT WEATHER AND/OR OBSTRUCTIONS TO VISIBILITY.

MTZ001>007-043-061400-
WEST OF THE DIVIDE

CITY           SKY/WX    TMP DP  RH WIND       PRES   REMARKS
DEER LODGE       N/A     54  45  71 NW5       30.29R
EUREKA           N/A     46  39  76 CALM      30.21S
HAMILTON         N/A     54  48  82 S1        30.19R
LIBBY            N/A     45  39  81 SE3       30.20S
PLAINS           N/A     48  42  80 CALM      30.17S
RONAN            N/A     45  43  93 CALM      30.21R
$$

MTZ008-052>055-061400-
SOUTHWEST MONTANA

CITY           SKY/WX    TMP DP  RH WIND       PRES   REMARKS
THREE FORKS      N/A     55  55 100 CALM      30.23R
$$

MTZ009-010-012-014-046-048-049-054-061400-
EAST SLOPES AND CENTRAL MONTANA

CITY           SKY/WX    TMP DP  RH WIND       PRES   REMARKS
MALMSTROM AFB  MOSUNNY   49  48  99 S7        30.27R
CONRAD           N/A     43  43 100 CALM      30.25S
$$

MTZ011-013-016-021-045-047-050-051-061400-
NORTH CENTRAL MONTANA

CITY           SKY/WX    TMP DP  RH WIND       PRES   REMARKS
CHINOOK          N/A     52  52 100 W3        30.24S
FORT BENTON      N/A     54  48  82 CALM      30.27S
$$

MTZ017>020-022>027-061-062-061400-
NORTHEAST MONTANA

CITY           SKY/WX    TMP DP  RH WIND       PRES   REMARKS
JORDAN           N/A     54  52  93 W7        30.24R
MALTA            N/A     53  50  90 CALM      30.18R
PLENTYWOOD       N/A     55  52  88 N7        30.18S
POPLAR           N/A     57  54  88 CALM      30.20R
SCOBEY           N/A     53  48  83 NW7       30.19R
$$

MTZ028>42-056>058-061400-
SOUTHCENTRAL AND SOUTHEAST MONTANA

CITY           SKY/WX    TMP DP  RH WIND       PRES   REMARKS
EKALAKA          N/A     55  52  90 NW7       30.19R
FORSYTH          N/A     57  55  94 W5        30.25R
LAUREL           N/A     55  46  71 N3        30.24S
ROUNDUP          N/A     55  48  77 CALM      30.17S
$$

REGIONAL REPORTS...DAKOTAS

CITY           SKY/WX    TMP DP  RH WIND       PRES   REMARKS
BUFFALO SD       N/A     59  55  87 NW16      30.13R
$$

REGIONAL REPORTS...WYOMING/IDAHO/WASHINGTON

CITY           SKY/WX    TMP DP  RH WIND       PRES   REMARKS
YELLOWSTONE LA   N/A     46  45  96 CALM      30.38R
$$

REGIONAL REPORTS...ALBERTA

CITY           SKY/WX    TMP DP  RH WIND       PRES   REMARKS
EDMONTON       SUNNY     52  41  66 CALM      30.15S
CALGARY        PTSUNNY   50  45  81 S10       30.18F
LETHBRIDGE     MOSUNNY   46  45  93 S6        30.22S
MEDICINE HAT   SUNNY     46  46 100 S3        30.24R
WATERTON GATE    N/A     45  41  87 S8          N/A
CARDSTON         N/A     45  43  93 S3          N/A
MILK RIVER       N/A     45  41  87 CALM        N/A
ONEFOUR          N/A     50  46  87 NW7         N/A
$$

REGIONAL REPORTS...SASKATCHEWAN

CITY           SKY/WX    TMP DP  RH WIND       PRES   REMARKS
SWIFT CURRENT  PTSUNNY   50  50 100 SW6       30.22S FOG
REGINA         MOSUNNY   55  48  76 NE5       30.22R
SASKATOON      MOSUNNY   46  45  93 SW5       30.22R
CYPRESS HILLS    N/A     46  45  93 N1          N/A
VAL MARIE        N/A     52  48  87 NE3         N/A
ROCKGLEN         N/A     50  48  93 N3          N/A
ASSINIBOIA       N/A     46  45  93 S5          N/A
$$



USA.gov is the U.S. government's official web portal to all federal, state and local government web resources and services.